DW9417 Weather Reports


Display with metric or nautical units.
time (UTC)temp
F
wind
direction
speed
MPH
gust
MPH
rain 1hr
in
rain 24hr
in
rain mn
in
humidity
%
barometer
mb
20260502231557 43 162 0.0 0.0 0.00 0.00 0.00 92 1027.0
20260502230039 41 163 0.0 0.0 0.00 0.00 0.00 91 1026.9
20260502224536 41 161 0.0 0.0 0.00 0.00 0.00 89 1026.6
20260502223033 41 159 0.0 0.0 0.00 0.00 0.00 89 1026.4
20260502221532 41 159 0.0 0.0 0.00 0.00 0.00 88 1026.2
20260502220036 42 159 0.0 0.0 0.00 0.00 0.00 89 1026.0
20260502214527 42 161 0.0 0.0 0.00 0.00 0.00 89 1025.9
20260502213026 42 161 0.0 0.0 0.00 0.00 0.00 88 1025.9
20260502211534 42 159 0.0 0.0 0.00 0.00 0.00 87 1025.7
20260502210021 43 159 0.0 0.0 0.00 0.00 0.00 87 1025.7
20260502204520 43 160 0.0 0.0 0.00 0.00 0.00 88 1025.6
20260502203019 43 160 0.0 0.0 0.00 0.00 0.00 86 1025.6
20260502201516 44 160 0.0 0.0 0.00 0.00 0.00 86 1025.5
20260502200014 44 159 0.0 0.0 0.00 0.00 0.00 86 1025.4
20260502194512 45 160 0.0 0.0 0.00 0.00 0.00 86 1025.4
20260502193013 45 159 0.0 0.0 0.00 0.00 0.00 86 1025.4
20260502191510 45 159 0.0 0.0 0.00 0.00 0.00 85 1025.4
20260502190010 45 160 0.0 0.0 0.00 0.00 0.00 84 1025.4
20260502184510 46 160 0.0 0.0 0.00 0.00 0.00 83 1025.3
20260502183005 47 159 0.0 0.0 0.00 0.00 0.00 82 1025.3
20260502181600 47 158 0.0 0.0 0.00 0.00 0.00 82 1025.3
20260502163041 53 163 0.0 0.0 0.00 0.00 0.00 73 1025.1
20260502161539 53 165 0.0 0.0 0.00 0.00 0.00 73 1025.1
20260502151539 53 166 0.0 0.0 0.00 0.00 0.00 75 1025.0
20260502123029 57 166 0.0 0.0 0.00 0.00 0.00 63 1025.2
20260502121541 57 166 0.0 0.0 0.00 0.00 0.00 61 1025.2
20260502114528 57 166 0.0 0.0 0.00 0.00 0.00 61 1025.0
20260502113029 58 166 0.0 0.0 0.00 0.00 0.00 61 1025.0
20260502111527 58 166 0.0 0.0 0.00 0.00 0.00 60 1025.0
20260502110027 58 166 0.0 0.0 0.00 0.00 0.00 59 1024.9
20260502104540 58 166 0.0 0.0 0.00 0.00 0.00 58 1024.8
20260502103028 59 159 0.0 3.0 0.00 0.00 0.00 57 1024.8
20260502101524 59 153 0.0 3.0 0.00 0.00 0.00 57 1024.6
20260502091524 60 163 1.0 5.0 0.00 0.00 0.00 53 1024.0
20260502070021 61 161 2.0 11.0 0.00 0.00 0.00 51 1023.8
20260502064517 60 162 3.0 10.0 0.00 0.00 0.00 51 1023.9
20260502063016 61 207 3.0 10.0 0.00 0.00 0.00 49 1023.9
20260502061515 61 177 2.0 10.0 0.00 0.00 0.00 51 1023.9
20260502060011 60 121 4.0 11.0 0.00 0.00 0.00 51 1024.1
20260502054517 60 157 3.0 11.0 0.00 0.00 0.00 52 1024.3
20260502053008 59 164 2.0 9.0 0.00 0.00 0.00 53 1024.5
20260502051512 59 177 5.0 13.0 0.00 0.00 0.00 53 1024.7
20260502050004 60 84 3.0 15.0 0.00 0.00 0.00 52 1024.8
20260502044502 59 98 6.0 17.0 0.00 0.00 0.00 52 1025.0
20260502043002 58 192 3.0 8.0 0.00 0.00 0.00 54 1025.3
20260502041501 58 124 4.0 13.0 0.00 0.00 0.00 55 1025.6
20260502040100 60 192 6.0 11.0 0.00 0.00 0.00 52 1025.8
20260502034557 59 173 5.0 11.0 0.00 0.00 0.00 54 1025.9
20260502033056 58 220 3.0 12.0 0.00 0.00 0.00 54 1026.1
20260502031609 58 199 6.0 14.0 0.00 0.00 0.00 54 1026.2
20260502030050 57 212 4.0 13.0 0.00 0.00 0.00 57 1026.2
20260502024554 56 127 4.0 10.0 0.00 0.00 0.00 62 1026.3
20260502023046 55 184 3.0 11.0 0.00 0.00 0.00 63 1026.5
20260502021543 55 177 3.0 11.0 0.00 0.00 0.00 65 1026.6
20260502020044 54 207 4.0 12.0 0.00 0.00 0.00 65 1026.5
20260502014538 53 144 2.0 7.0 0.00 0.00 0.00 68 1026.4
20260502013034 51 153 2.0 8.0 0.00 0.00 0.00 76 1026.4
20260502011531 49 185 2.0 5.0 0.00 0.00 0.00 80 1026.4
20260502010025 48 85 0.0 2.0 0.00 0.00 0.00 83 1026.6
20260502004521 46 185 2.0 4.0 0.00 0.00 0.00 85 1026.6
20260502003020 44 181 1.0 4.0 0.00 0.00 0.00 89 1026.7
20260502001514 43 178 0.0 0.0 0.00 0.00 0.00 92 1026.7
20260502000009 41 178 0.0 0.0 0.00 0.00 0.00 92 1026.7
20260501234506 40 178 0.0 0.0 0.00 0.00 0.00 92 1026.6
20260501233004 39 178 0.0 0.0 0.00 0.00 0.00 91 1026.6